Regional Weather Roundup
Issued by NWS

Home | Current Version | Previous Version | Graphics & Text | Print | Product List | Glossary On
Versions: 1 2 3 4 5 6 7 8 9 10 11 12 13 14 15 16 17 18 19 20 21 22 23 24 25 26 27 28 29 30 31 32 33 34 35 36 37 38 39 40 41 42 43 44 45 46 47 48 49 50
000
ASUS43 KBIS 030610
RWRND

NORTH DAKOTA REGIONAL WEATHER ROUNDUP
NATIONAL WEATHER SERVICE BISMARCK ND
100 AM CDT FRI JUL 03 2015

NOTE: "FAIR" INDICATES FEW OR NO CLOUDS BELOW 12,000 FEET WITH NO
SIGNIFICANT WEATHER AND/OR OBSTRUCTIONS TO VISIBILITY.


NDZ001>003-009>011-017-030700-
NORTHWEST NORTH DAKOTA

CITY           SKY/WX    TMP DP  RH WIND       PRES   REMARKS
WILLISTON      CLEAR     67  62  84 CALM      30.02S
6HR MIN TEMP:  64; 6HR MAX TEMP:  83;

MINOT          CLOUDY    65  61  87 SW6       29.97R FOG
MINOT AFB      CLEAR     63  63 100 W6        29.96S
$$

NDZ018>021-031>035-040>046-030700-
SOUTHWEST NORTH DAKOTA

CITY           SKY/WX    TMP DP  RH WIND       PRES   REMARKS
BISMARCK       CLOUDY    66  63  90 W3        29.99R FOG
6HR MIN TEMP:  65; 6HR MAX TEMP:  77;

DICKINSON      CLEAR     61  58  90 S5        30.03S FOG
GARRISON         N/A     64  61  90 NW6       29.99R
6HR MIN TEMP:  64; 6HR MAX TEMP:  78;

HETTINGER ARPT FOG       58  56  93 CALM      30.07R VSB 1/4
$$

NDZ004>008-012>016-024-026-027-054-030700-
NORTHEAST NORTH DAKOTA

CITY           SKY/WX    TMP DP  RH WIND       PRES   REMARKS
GRAND FORKS    CLOUDY    67  65  93 W6        29.89S
GRND FRKS AFB  CLEAR     67  64  91 W6        29.90S
DEVILS LAKE    CLEAR     66  61  82 W7        29.93S
$$

NDZ022-023-025-028>030-036>039-047>053-030700-
SOUTHEAST NORTH DAKOTA

CITY           SKY/WX    TMP DP  RH WIND       PRES   REMARKS
FARGO          PTCLDY    65  56  72 S8        29.93R
6HR MIN TEMP:  65; 6HR MAX TEMP:  76;

JAMESTOWN      CLOUDY    66  62  87 NW5       29.95S FOG
$$




USA.gov is the U.S. government's official web portal to all federal, state and local government web resources and services.